Location: Newark
(49.3000°N, 9.4667°E)
Time: 03:01:42
(UTC+00:00)

S-56A Canister/Altair - Pass Details

Date: 23 May 2019
Orbit: 633 x 2499 km, 38.9° (Epoch: 16 June)

Event Time Altitude Azimuth Distance (km) Brightness Sun altitude
Exits shadow 23:52:29 18° 141° (SE) 2,390 9.6 -19.6°
Drops below altitude 10° 23:57:26 10° 103° (ESE) 3,351 10.7 -19.5°
Sets 00:02:06 0° 87° (E) 4,731 11.7 -19.4°
